When you browse on this site, cookies collect data to enhance your experience and personalize the content and advertising you see.
Visit our Privacy Policy to learn more. By continuing to use the site, you agree to this use of cookies and data.
  • In Hungary
  • List of Countries
  • For 7 days
  • Water Temperature
  • Satellite Maps
  • Weather Map
  • News
  • Weather Widgets
  • user-avatar
    Login

    Hourly Weather Alesd

    Today, 24 March, Sunday

    Time Temperature Precipitation Wind Pressure Humidity
    00:00 +8°C° 0 mm 1 mps 736 mmHg 50%
    01:00 +7°C° 0 mm 1 mps 736 mmHg 45%
    02:00 +7°C° 0 mm 1 mps 736 mmHg 44%
    03:00 +7°C° 0 mm 1 mps 735 mmHg 42%
    04:00 +7°C° 0 mm 1 mps 735 mmHg 41%
    05:00 +8°C° 0 mm 1 mps 735 mmHg 42%
    06:00 +9°C° 0 mm 1 mps 735 mmHg 43%
    07:00 +9°C° 0 mm 1 mps 735 mmHg 45%
    08:00 +11°C° 0 mm 1 mps 735 mmHg 42%
    09:00 +13°C° 0 mm 1 mps 735 mmHg 40%
    10:00 +15°C° 0 mm 2 mps 735 mmHg 38%
    11:00 +16°C° 0 mm 2 mps 735 mmHg 40%
    12:00 +16°C° 0 mm 2 mps 734 mmHg 42%
    13:00 +17°C° 0 mm 2 mps 734 mmHg 43%
    14:00 +17°C° 0 mm 2 mps 734 mmHg 45%
    15:00 +17°C° 0 mm 2 mps 733 mmHg 47%
    16:00 +18°C° 0 mm 1 mps 733 mmHg 48%
    17:00 +15°C° 0 mm 1 mps 733 mmHg 55%
    18:00 +13°C° 0 mm 1 mps 732 mmHg 61%
    19:00 +11°C° 0 mm 1 mps 732 mmHg 67%
    20:00 +11°C° 0 mm 1 mps 732 mmHg 68%
    21:00 +10°C° 0 mm 2 mps 732 mmHg 69%
    22:00 +9°C° 0 mm 2 mps 731 mmHg 69%
    23:00 +9°C° 0 mm 3 mps 731 mmHg 66%

    Tomorrow, 25 March, Monday

    Time Temperature Precipitation Wind Pressure Humidity
    00:00 +9°C° 0 mm 3 mps 731 mmHg 63%
    01:00 +9°C° 0 mm 3 mps 730 mmHg 60%
    02:00 +8°C° 0 mm 4 mps 730 mmHg 59%
    03:00 +8°C° 0 mm 4 mps 729 mmHg 59%
    04:00 +8°C° 0 mm 5 mps 729 mmHg 58%
    05:00 +8°C° 0.1 mm 5 mps 728 mmHg 59%
    06:00 +8°C° 0.1 mm 5 mps 728 mmHg 60%
    07:00 +9°C° 0.1 mm 5 mps 728 mmHg 61%
    08:00 +10°C° 0.2 mm 5 mps 728 mmHg 61%
    09:00 +12°C° 0.2 mm 5 mps 728 mmHg 61%
    10:00 +13°C° 0.2 mm 5 mps 728 mmHg 62%
    11:00 +14°C° 0.1 mm 5 mps 727 mmHg 58%
    12:00 +14°C° 0.1 mm 6 mps 727 mmHg 54%
    13:00 +14°C° 0.1 mm 6 mps 727 mmHg 50%
    14:00 +13°C° 0 mm 6 mps 726 mmHg 53%
    15:00 +11°C° 0 mm 6 mps 726 mmHg 55%
    16:00 +12°C° 0 mm 5 mps 726 mmHg 57%
    17:00 +10°C° 0 mm 5 mps 726 mmHg 60%
    18:00 +9°C° 0 mm 5 mps 726 mmHg 63%
    19:00 +8°C° 0 mm 5 mps 727 mmHg 66%
    20:00 +8°C° 0 mm 4 mps 727 mmHg 67%
    21:00 +8°C° 0 mm 3 mps 727 mmHg 67%
    22:00 +8°C° 0 mm 3 mps 727 mmHg 68%
    23:00 +7°C° 0 mm 3 mps 728 mmHg 68%

    Day after tomorrow, 26 March, Tuesday

    Time Temperature Precipitation Wind Pressure Humidity
    00:00 +7°C° 0 mm 3 mps 728 mmHg 68%
    01:00 +5°C° 0 mm 3 mps 729 mmHg 68%
    02:00 +4°C° 0 mm 3 mps 729 mmHg 68%
    03:00 +4°C° 0 mm 4 mps 729 mmHg 68%
    04:00 +3°C° 0 mm 4 mps 730 mmHg 69%
    05:00 +3°C° 0 mm 4 mps 730 mmHg 68%
    06:00 +3°C° 0 mm 4 mps 731 mmHg 68%
    07:00 +2°C° 0 mm 5 mps 732 mmHg 67%
    08:00 +3°C° 0 mm 5 mps 732 mmHg 63%
    09:00 +5°C° 0 mm 5 mps 732 mmHg 59%
    10:00 +6°C° 0 mm 5 mps 733 mmHg 56%
    11:00 +7°C° 0 mm 5 mps 733 mmHg 53%
    12:00 +8°C° 0 mm 6 mps 733 mmHg 50%
    13:00 +8°C° 0 mm 6 mps 733 mmHg 47%
    14:00 +8°C° 0 mm 5 mps 733 mmHg 47%
    15:00 +8°C° 0 mm 5 mps 733 mmHg 48%
    16:00 +7°C° 0 mm 5 mps 733 mmHg 48%
    17:00 +6°C° 0 mm 4 mps 733 mmHg 52%
    18:00 +4°C° 0 mm 3 mps 734 mmHg 56%
    19:00 +4°C° 0 mm 2 mps 734 mmHg 60%
    20:00 +3°C° 0 mm 2 mps 735 mmHg 61%
    21:00 +4°C° 0 mm 1 mps 735 mmHg 61%
    22:00 +3°C° 0 mm 1 mps 735 mmHg 62%
    23:00 +3°C° 0 mm 1 mps 735 mmHg 61%

    27 March, Wednesday

    Time Temperature Precipitation Wind Pressure Humidity
    00:00 +3°C° 0 mm 1 mps 735 mmHg 61%
    01:00 +2°C° 0 mm 2 mps 736 mmHg 60%
    02:00 +3°C° 0 mm 1 mps 736 mmHg 62%
    03:00 +3°C° 0 mm 1 mps 736 mmHg 63%
    04:00 +2°C° 0 mm 1 mps 736 mmHg 65%
    05:00 +3°C° 0 mm 1 mps 736 mmHg 66%
    06:00 +3°C° 0 mm 2 mps 736 mmHg 68%
    07:00 +3°C° 0 mm 2 mps 737 mmHg 70%
    08:00 +5°C° 0 mm 2 mps 737 mmHg 62%
    09:00 +5°C° 0 mm 3 mps 737 mmHg 54%
    10:00 +8°C° 0 mm 3 mps 738 mmHg 47%
    11:00 +8°C° 0 mm 3 mps 737 mmHg 45%
    12:00 +8°C° 0 mm 4 mps 737 mmHg 44%
    13:00 +8°C° 0 mm 4 mps 737 mmHg 42%
    14:00 +8°C° 0 mm 4 mps 737 mmHg 40%
    15:00 +7°C° 0 mm 4 mps 737 mmHg 37%
    16:00 +7°C° 0 mm 4 mps 737 mmHg 35%
    17:00 +5°C° 0 mm 3 mps 738 mmHg 39%
    18:00 +5°C° 0 mm 2 mps 738 mmHg 42%
    19:00 +4°C° 0 mm 1 mps 738 mmHg 46%
    20:00 +3°C° 0 mm 1 mps 739 mmHg 48%
    21:00 +3°C° 0 mm 1 mps 739 mmHg 50%
    22:00 +3°C° 0 mm 1 mps 739 mmHg 52%
    23:00 +2°C° 0 mm 1 mps 739 mmHg 52%

    28 March, Thursday

    Time Temperature Precipitation Wind Pressure Humidity
    00:00 +2°C° 0 mm 1 mps 739 mmHg 53%
    01:00 +2°C° 0 mm 1 mps 739 mmHg 54%
    02:00 +2°C° 0 mm 1 mps 739 mmHg 54%
    03:00 +1°C° 0 mm 2 mps 739 mmHg 54%
    04:00 -1°C° 0 mm 2 mps 739 mmHg 54%
    05:00 +1°C° 0 mm 2 mps 740 mmHg 53%
    06:00 +3°C° 0 mm 2 mps 740 mmHg 52%
    07:00 +4°C° 0 mm 2 mps 740 mmHg 51%
    08:00 +6°C° 0 mm 2 mps 740 mmHg 47%
    09:00 +8°C° 0 mm 2 mps 741 mmHg 43%
    10:00 +11°C° 0 mm 1 mps 741 mmHg 39%
    11:00 +12°C° 0 mm 2 mps 741 mmHg 38%
    12:00 +13°C° 0 mm 2 mps 740 mmHg 36%
    13:00 +13°C° 0 mm 2 mps 740 mmHg 34%
    14:00 +13°C° 0 mm 2 mps 740 mmHg 36%
    15:00 +13°C° 0 mm 2 mps 740 mmHg 38%
    16:00 +12°C° 0 mm 3 mps 739 mmHg 39%
    17:00 +10°C° 0 mm 2 mps 739 mmHg 45%
    18:00 +8°C° 0 mm 2 mps 739 mmHg 51%
    19:00 +6°C° 0 mm 2 mps 739 mmHg 57%
    20:00 +5°C° 0 mm 2 mps 740 mmHg 58%
    21:00 +5°C° 0 mm 2 mps 740 mmHg 58%
    22:00 +4°C° 0 mm 2 mps 740 mmHg 59%
    23:00 +4°C° 0 mm 2 mps 740 mmHg 59%

    29 March, Friday

    Time Temperature Precipitation Wind Pressure Humidity
    00:00 +4°C° 0 mm 2 mps 740 mmHg 59%
    01:00 +4°C° 0 mm 2 mps 740 mmHg 60%
    02:00 +4°C° 0 mm 1 mps 740 mmHg 60%
    03:00 +4°C° 0 mm 1 mps 740 mmHg 59%
    04:00 +4°C° 0 mm 1 mps 740 mmHg 59%
    05:00 +5°C° 0 mm 1 mps 740 mmHg 58%
    06:00 +6°C° 0 mm 1 mps 740 mmHg 56%
    07:00 +6°C° 0 mm 0 mps 740 mmHg 54%
    08:00 +8°C° 0 mm 1 mps 740 mmHg 50%
    09:00 +10°C° 0 mm 1 mps 740 mmHg 47%
    10:00 +12°C° 0 mm 2 mps 740 mmHg 44%
    11:00 +12°C° 0 mm 2 mps 740 mmHg 43%
    12:00 +12°C° 0 mm 3 mps 739 mmHg 42%
    13:00 +12°C° 0 mm 3 mps 739 mmHg 41%
    14:00 +12°C° 0 mm 3 mps 739 mmHg 43%
    15:00 +12°C° 0 mm 3 mps 738 mmHg 44%
    16:00 +12°C° 0 mm 3 mps 738 mmHg 45%
    17:00 +10°C° 0 mm 3 mps 738 mmHg 51%
    18:00 +8°C° 0 mm 2 mps 738 mmHg 57%
    19:00 +7°C° 0 mm 2 mps 738 mmHg 62%
    20:00 +7°C° 0 mm 1 mps 738 mmHg 63%
    21:00 +7°C° 0 mm 1 mps 738 mmHg 64%
    22:00 +6°C° 0 mm 1 mps 738 mmHg 65%
    23:00 +6°C° 0 mm 1 mps 738 mmHg 66%
    Show more